Weather History for Fort Campbell, KY

Change the Weather History Date:

Tuesday, October 16, 2012

  Actual Average Record
Temperature  
Mean Temperature 60 °F -  
Max Temperature 75 °F 68 °F 83 °F (2011)
Min Temperature 44 °F 46 °F 37 °F (2010)
Degree Days  
Heating Degree Days 6    
Growing Degree Days 10 (Base 50)    
Moisture  
Dew Point 50 °F    
Average Humidity 74    
Maximum Humidity 100    
Minimum Humidity 42    
Precipitation  
Precipitation 0.00 in - - ()
Sea Level Pressure  
Sea Level Pressure 29.92 in    
Wind  
Wind Speed 4 mph (South)    
Max Wind Speed 13 mph    
Max Gust Speed -    
Visibility 10 miles    
Events      
Averages and records for this station are not official NWS values.
T = Trace of Precipitation, MM = Missing Value Source: NWS Daily Summary

Daily Weather History Graph

Daily Weather History Graph

Search for Another Location

Airport:

Trip Planner

Search our weather history database for the weather conditions in past years. The results will help you decide how hot, cold, wet, or windy it might be!

Date:

Astronomy

Oct. 16, 2012 Rise Set
Actual Time 6:58 AM CDT 6:11 PM CDT
Civil Twilight 6:32 AM CDT 6:37 PM CDT
Nautical Twilight 6:02 AM CDT 7:07 PM CDT
Astronomical Twilight 5:32 AM CDT 7:37 PM CDT
Moon 8:17 AM CDT (10/16) 6:59 PM CDT (10/16)
Length of Visible Light 12h 05m
Length of Day
11h 12m
New Moon, 2% of the Moon is Illuminated
Oct 16
New Moon
Oct 21
First Quarter
Oct 29
Full
Nov 6
Last Quarter
Nov 13
New

Hourly Weather History & Observations

Time (CDT) Temp. Windchill Dew Point Humidity Pressure Visibility Wind Dir Wind Speed Gust Speed Precip Events Conditions
12:55 AM 47.3 °F - 46.9 °F 99% 30.00 in 10.0 mi Calm Calm - N/A   Clear
1:55 AM 47.1 °F - 47.1 °F 100% 30.01 in 10.0 mi Calm Calm - N/A   Clear
2:55 AM 45.9 °F - 45.7 °F 99% 30.00 in 10.0 mi Calm Calm - N/A   Clear
3:55 AM 46.2 °F - 46.2 °F 100% 29.99 in 10.0 mi Calm Calm - N/A   Clear
4:55 AM 44.8 °F 43.3 °F 44.8 °F 100% 29.99 in 10.0 mi East 3.5 mph - N/A   Clear
5:55 AM 45.5 °F 44.2 °F 45.5 °F 100% 30.00 in 10.0 mi ESE 3.5 mph - N/A   Clear
6:55 AM 44.6 °F 42.2 °F 44.6 °F 100% 29.99 in 10.0 mi East 4.6 mph - N/A   Clear
7:55 AM 47.8 °F - 47.8 °F 100% 29.99 in 10.0 mi ESE 4.6 mph - N/A   Clear
8:55 AM 55.2 °F - 48.9 °F 79% 30.00 in 10.0 mi SE 8.1 mph - N/A   Clear
9:55 AM 61.2 °F - 47.8 °F 62% 29.99 in 10.0 mi SSE 10.4 mph - N/A   Clear
10:55 AM 65.5 °F - 48.4 °F 54% 29.98 in 10.0 mi SSE 10.4 mph - N/A   Partly Cloudy
11:55 AM 67.3 °F - 49.3 °F 52% 29.96 in 10.0 mi SSE 6.9 mph - N/A   Mostly Cloudy
12:55 PM 71.2 °F - 50.5 °F 48% 29.92 in 10.0 mi SSE 9.2 mph - N/A   Clear
1:55 PM 74.7 °F - 50.4 °F 42% 29.88 in 10.0 mi South 8.1 mph - N/A   Clear
2:55 PM 74.8 °F - 50.0 °F 42% 29.85 in 10.0 mi South 9.2 mph - N/A   Clear
3:55 PM 75.2 °F - 51.8 °F 44% 29.83 in 10.0 mi SSW 10.4 mph - N/A   Clear
4:55 PM 72.9 °F - 51.6 °F 47% 29.81 in 10.0 mi SW 12.7 mph - N/A   Clear
5:55 PM 69.6 °F - 53.4 °F 56% 29.81 in 10.0 mi South 5.8 mph - N/A   Clear
6:55 PM 66.7 °F - 53.4 °F 62% 29.81 in 10.0 mi South 5.8 mph - N/A   Clear
7:55 PM 63.9 °F - 53.4 °F 69% 29.82 in 10.0 mi South 5.8 mph - N/A   Clear
8:55 PM 62.8 °F - 54.0 °F 73% 29.83 in 10.0 mi SSW 5.8 mph - N/A   Clear
9:55 PM 61.3 °F - 55.0 °F 80% 29.84 in 10.0 mi SSW 8.1 mph - N/A   Clear
10:55 PM 59.4 °F - 54.5 °F 84% 29.84 in 10.0 mi SSW 5.8 mph - N/A   Clear
11:55 PM 58.6 °F - 54.3 °F 86% 29.84 in 10.0 mi SSW 8.1 mph - N/A   Clear